Other Surface Observations
Issued by NWS Tucson, AZ

Home | Current Version | Previous Version | Text Only | Print | Product List | Glossary On
Versions: 1 2 3 4 5 6 7 8 9 10 11 12 13 14 15 16 17 18 19 20 21 22 23 24 25 26 27 28 29 30 31 32 33 34 35 36 37 38 39 40 41 42 43 44 45 46 47 48 49 50
484
SXUS55 KTWC 141515
OSOTWC

WEATHER ROUNDUP FOR SOUTHEAST ARIZONA
NATIONAL WEATHER SERVICE TUCSON AZ
815 AM MST SUN FEB 14 2016

AZZ504>506-514-141615-
LOCATION       SKY/WX    TMP DP  RH WIND       PRES   REMARKS
TUCSON         CLEAR     49  21  33 SE12      30.06S
DAVIS-MONTHAN  CLEAR     47  23  38 SE8       30.04S
CHILDRENS PARK N/A      N/A N/A  53 E4                PIMA CO DEQ
ALVERNON/22ND  N/A       48 N/A N/A E3                PIMA CO DEQ
CHERRY/GLENN   N/A       44 N/A N/A E3                PIMA CO DEQ
TANGERINE      N/A       46 N/A N/A E5                PIMA CO DEQ
CONTL RANCH    N/A       46  27  48 SE5               PIMA CO DEQ
GRANT/1ST      N/A       47  27  45 SW2               PIMA CO DEQ
CRAYCROFT/22ND N/A       47  25  41 S2                PIMA CO DEQ
GOLFLINKS/KOLB N/A       48  23  37 SE6               PIMA CO DEQ
AJO/12TH       N/A       43  25  49 S6                PIMA CO DEQ
SAGUARO EAST   N/A       15 -14  24 E3                PIMA CO DEQ
FAIRGROUNDS    N/A       45 N/A N/A SE0               PIMA CO DEQ
SAGUARO        N/A       42  22  44 N3                *SABINO CYN
SAN CARLOS     N/A       39  22  51 CALM              *SAN CARLOS
GREEN VALLEY   N/A       42  21  43 S6                PIMA CO DEQ
HORSE CAMP CYN N/A       48  23  37 E9                *ARAVAIPA CYN
RINCON MTNS    N/A       45  11  25 NW6G15            *NR MANNING CAMP
$$

AZZ509>511-141615-
LOCATION       SKY/WX    TMP DP  RH WIND       PRES   REMARKS
SAFFORD        SUNNY     41  20  43 SE5       30.05S
STRAY HORSE    N/A       41   2  19 N6                *
TRAIL CABIN    N/A       38  14  37 SW2               *N OF GRANVILLE
BLACK HILLS    N/A       46  26  45 SE2               *N OF FT THOMAS
DRY LAKE       N/A       45   7  21 N4                *NATANES MTNS
NOON CREEK     N/A       51  10  19 SW10G13           *PINALENO MTNS
COLUMBINE      N/A       27   2  33 CALM              *PINALENO MTNS
GUTHRIE        N/A       52   9  17 NW14              *SW OF GUTHRIE
$$

AZZ502-503-513-141615-
LOCATION       SKY/WX    TMP DP  RH WIND       PRES   REMARKS
NOGALES        SUNNY     41  19  41 CALM      30.10R
SELLS          N/A       44  25  46 E4                *
SASABE         N/A       33  22  64 SW7               *ALTAR VLY
HOPKINS        N/A       52  -1  11 N17G26            *SANTA RITA MTNS
CARR CYN       N/A       50  12  21 W4G10             *W OF HEREFORD
$$

AZZ507-508-512-141615-
LOCATION       SKY/WX    TMP DP  RH WIND       PRES   REMARKS
SIERRA VISTA   MOSUNNY   45   9  23 CALM      30.13R
DOUGLAS        MOSUNNY   41  17  38 CALM      30.10R
EMPIRE MTNS    N/A       40  18  40 W4                *LAS CIENEGAS NCA
MULESHOE RANCH N/A       43   8  23 CALM              *PRESERVE
HEADQUARTERS   N/A       43  16  33 E4                *CHIRICAHUA MTNS
$$

.............................NOTES.............................
THIS IS AN AUTOMATED COLLECTIVE WITH MINIMAL QUALITY CONTROL.
PIMA CO DEQ SITES HAVE NONSTANDARD WIND SENSOR HEIGHTS.
PIMA CO DEQ SITES DO NOT REPORT WIND GUSTS.
* INDICATES WIND SENSORS LOCATED AT 20 FEET INSTEAD OF 33 FEET.
..............................KEY..............................
SKY/WX - SKY CONDITION/WEATHER
TMP    - TEMPERATURE IN FAHRENHEIT
DP     - DEWPOINT IN FAHRENHEIT
RH     - RELATIVE HUMIDITY IN PERCENT
WIND   - DIRECTION AND SPEED IN MILES PER HOUR (MPH)
VRB    - VARIABLE WIND DIRECTION
PRES   - MEAN SEA LEVEL PRESSURE IN INCHES OF MERCURY
         F - FALLING PRESSURE   R - RISING PRESSURE
         S - STEADY PRESSURE
VSB    - VISIBILITY IN MILES
HX     - HEAT INDEX IN FAHRENHEIT
WCI    - WIND CHILL INDEX IN FAHRENHEIT
N/A    - NOT AVAILABLE
AFB    - AIR FORCE BASE
         DAVIS-MONTHAN IS DAVIS-MONTHAN AIR FORCE BASE
CYN    - CANYON
MTNS   - MOUNTAINS
NCA    - NATIONAL CONSERVATION AREA
NR     - NEAR
VLY    - VALLEY
CONTL  - CONTINENTAL
PIMA CO DEQ - PIMA COUNTY DEPT OF ENVIRONMENTAL QUALITY



USA.gov is the U.S. government's official web portal to all federal, state and local government web resources and services.